Regional Weather Roundup
Issued by NWS Charleston, SC

Current Version | Previous Version | Text Only | Print | Product List | Glossary Off
Versions: 1 2 3 4 5 6 7 8 9 10 11 12 13 14 15 16 17 18 19 20 21 22 23 24 25 26 27 28 29 30 31 32 33 34 35 36 37 38 39 40 41 42 43 44 45 46 47 48 49 50

000
ASUS42 KCHS 110610
RWRCHS
REGIONAL WEATHER ROUNDUP
NATIONAL WEATHER SERVICE CHARLESTON SC
200 AM EDT FRI JUL 11 2014

NOTE: "FAIR" INDICATES FEW OR NO CLOUDS BELOW 12,000 FEET WITH NO
SIGNIFICANT WEATHER AND/OR OBSTRUCTIONS TO VISIBILITY.

NOT ALL STATIONS ARE QUALITY CONTROLLED BY THE NATIONAL
WEATHER SERVICE. USE DATA WITH CAUTION...ESPECIALLY
DEWPOINT OBSERVATIONS.

SCZ027-030-031-034>040-042>050-110700-
...SOUTH CAROLINA...

CITY           SKY/WX    TMP DP  RH WIND       PRES   REMARKS
N CHARLESTON   CLOUDY    77  69  76 SW3       30.12S
6HR MIN TEMP:  76; 6HR MAX TEMP:  84; 6HR PCP: TRACE;

WATERFRONT PRK   N/A     79 N/A N/A W3          N/A
FORT JOHNSON   NOT AVBL
MOUNT PLEASANT FAIR      79  70  73 CALM      30.12S
JOHNS ISLAND   CLEAR     77  68  73 CALM      30.12F
PINOPOLIS        N/A     79  70  73 CALM      30.04S
MONCKS CORNER    N/A     73  72  94 CALM      30.11F
SUMMERVILLE    FAIR      72  72 100 CALM      30.13S
BEAUFORT MCAS  MOCLDY    76  71  85 NW3       30.11F
6HR MIN TEMP:  76; 6HR MAX TEMP:  84;

BEAUFORT ARPT  FAIR      77  73  88 CALM      30.11S
HILTON HEAD IS MOCLDY    75  73  94 CALM      30.12F
GEORGETOWN     NOT AVBL
WALTERBORO     MOCLDY    75 N/A N/A CALM      30.13S
ORANGEBURG     CLOUDY    73  70  90 SW6       30.11F
6HR MIN TEMP:  73; 6HR MAX TEMP:  87; 6HR PCP:  0.02;

BARNWELL       FAIR      73  73 100 E3        30.13R
AIKEN          FAIR      73  73 100 SE6       30.15R
MANNING        FAIR      73 N/A N/A CALM      30.11F
KINGSTREE      NOT AVBL
COLUMBIA       MOCLDY    75  72  90 S6        30.09S
6HR MIN TEMP:  74; 6HR MAX TEMP:  90; 6HR PCP:  1.32;

SUMTER         CLOUDY    73  72  94 E3        30.09F
6HR MIN TEMP:  72; 6HR MAX TEMP:  87; 6HR PCP:  1.87;

FLORENCE       CLOUDY    70  68  93 CALM      30.09F
6HR MIN TEMP:  70; 6HR MAX TEMP:  75; 6HR PCP:  1.21;

MYRTLE BEACH   CLOUDY    72  68  88 W6        30.11F
N MYRTLE BEACH RAIN      72  68  87 W7        30.11F
6HR MIN TEMP:  72; 6HR MAX TEMP:  82; 6HR PCP:  1.25;


$$

GAZ063-065-086>088-099>101-113>116-118-119-134-136>141-150-110700-
...GEORGIA...

CITY           SKY/WX    TMP DP  RH WIND       PRES   REMARKS
SAVANNAH ARPT  CLOUDY    75  72  90 CALM      30.12R
6HR MIN TEMP:  74; 6HR MAX TEMP:  75; 6HR PCP:  0.10;

HUNTER AAF     CLOUDY    75  74  96 CALM      30.10S
6HR MIN TEMP:  73; 6HR MAX TEMP:  75; 6HR PCP:  0.11;

FORT STEWART   CLOUDY    74  72  95 CALM      30.11R
6HR MIN TEMP:  73; 6HR MAX TEMP:  75; 6HR PCP:  0.02;

STATESBORO     NOT AVBL
SYLVANIA       CLOUDY    73  73 100 CALM      30.13S FOG
CLAXTON        FAIR     N/A N/A N/A CALM      30.13R
THOMSON        PTCLDY    74  74 100 CALM      30.15R
AUGUSTA-BUSH   PTCLDY    72  71  97 S3        30.10S
6HR MIN TEMP:  72; 6HR MAX TEMP:  88;

AUGUSTA-DANIEL PTCLDY    75  72  90 SE6       30.12R
SWAINSBORO     FAIR      73  73 100 CALM      30.12S
VIDALIA        RAIN      72  72 100 CALM      30.12S
ALMA           MOCLDY    72  70  93 CALM      30.11R
6HR MIN TEMP:  71; 6HR MAX TEMP:  79;

WAYCROSS       MOCLDY    77  75  93 CALM      30.11S
JESUP          NOT AVBL
BRUNSWICK      MOCLDY    73  72  94 CALM      30.12S
SAINT SIMONS   CLOUDY    77  74  90 CALM      30.11S
6HR MIN TEMP:  76; 6HR MAX TEMP:  78; 6HR PCP:  0.01;


$$

SCZ027-028-034-036>038-045-046-048>050-GAZ119-141-110700-
...LAKE AND SUPPLEMENTAL COASTAL OBSERVATIONS...

STATION/POSITION TIME  TEMP    WIND        PRES    WAVE   SWELL
                       AIR SEA DIR/SP/G            HT/PER HT/PER/DIR
                 (UTC) (F)     (DEG/KT/KT) (MB)    (FT/S) (FT/S/D)
UPR LAKE MARION  NOT AVBL
WINYAH BAY       0500   81     260/  5     1020.0R
LAKE MURRAY      0500   76      CALM  /  3 1018.3F
ACE BASIN NERRS  0500   77     270/  1     1020.0R
FORT PULASKI     0600   77 78  260/  3/  4   N/A
SAPELO ISLAND    0500   78     270/  2     1020.0S

$$

ANZ835-935-AMZ111-154-330-350-352-354-374-450-454-472-110700-
...C-MAN AND BUOY OBSERVATIONS...

STATION/POSITION TIME  TEMP    WIND        PRES    WAVE   SWELL
                       AIR SEA DIR/SP/G            HT/PER HT/PER/DIR
                 (UTC) (F)     (DEG/KT/KT) (MB)    (FT/S) (FT/S/D)
FOLLY BEACH CMAN 0500   78     310/  4/  5 1020.3R
BUOY 41004       0600   81 82  210/  8/ 10 1019.1S   4/ 5   3/ 5
BUOY 41008       0600   82 84  200/ 12/ 14 1019.4S   2/ 4   2/ 90/ 9
5E ST. MARYS GA  0600      83                N/A     2/ 9
FRYING PAN BUOY  NOT AVBL
BUOY 41025       0600          VRB  8/ 10  1020.3R   3/ 6   3/160/ 6
CAPE LOOKOUT NC  0500   75     320/  4/  6 1020.0F
BUOY 41002       0454   81 81  200/ 12/ 14 1022.5    3/ 9   2/120/ 9
BUOY 41010       0600   81 83  140/  8/ 10 1020.8F   2/10   2/ 90/10
BUOY 41012       NOT AVBL
ST AUGUSTINE FL  0600   75     220/  5/  7 1020.5F
CAPERS NEARSHORE 0500   82     270/ 12/ 16   N/A
FRIPP NEARSHORE  0500   81     260/  8/ 10   N/A


$$



USA.gov is the U.S. government's official web portal to all federal, state and local government web resources and services.